{"data":{"norad_id":49077,"epoch":"2026-09-20T03:54:27.124416Z","epoch_age_seconds":51043,"freshness":"FRESH","line1":"1 49077U 21075C   26263.16281394  .00000071  00000+0  14913-3 0  9993","line2":"2 49077  87.9200 347.0055 0002041 111.5948 248.5402 13.17649542246138","mean_motion":13.17649542,"eccentricity":0.0002041,"inclination_deg":87.92,"raan_deg":347.0055,"arg_perigee_deg":111.5948,"mean_anomaly_deg":248.5402,"bstar":0.00014913,"rev_number":24613,"period_min":109.28550833132,"perigee_km":1192.1657692536,"apogee_km":1195.2565976821,"semimajor_km":7571.8481834678,"source":"CELESTRAK","updated_at":"2026-09-20T09:00:44.631080Z"}}